[[{"header":{"parameterUnit":"m.s-1","parameterCategory":1,"la1":30.2991,"la2":30.254,"lo1":-89.0895,"lo2":-89.0444,"dy":0.0017,"dx":0.0017,"nx":28,"ny":28,"refTime":"2024-08-31T09:00:00:Z","depth":0,"parameterNumber":2,"parameterNumberName":"U-component_of_WINDS"},"data":[0,0,0,0,0,0,0,0,0,0,0,0,0,0,0,0,0,0,0,0,0,0,0,0,0,0,0,0,0,0,0,0,0,0,0,0,0,0,0,0,0,0,0,0,0,0,0,0,0,0,0,0,0,0,0,0,0,0,-4.5835,-4.5838,0,-4.608,-4.6083,-4.6086,-4.6083,-4.608,-4.6077,-4.6073,-4.632,-4.6329,-4.6339,0,0,0,0,0,0,0,0,0,0,0,0,0,-4.5361,-4.537,-4.5835,-4.5838,-4.5841,-4.608,-4.6083,-4.6087,-4.6084,-4.608,-4.6076,-4.6072,-4.6317,-4.6328,-4.634,0,0,0,0,0,0,0,0,0,0,0,0,0,-4.5583,-4.5373,-4.5834,-4.5868,-4.5874,-4.6079,-4.6083,-4.6087,-4.6084,-4.608,-4.6075,-4.607,-4.6313,-4.6327,-4.6341,-4.6527,0,0,-4.6385,-4.6391,0,0,0,0,0,0,0,0,-4.557,-4.56,-4.586,-4.5866,-4.5873,-4.6046,-4.6007,-4.6235,-4.6086,-4.6004,-4.6073,-4.6068,-4.6233,-4.6253,-4.631,-4.6539,-4.655,-4.6387,-4.6395,-4.6401,-4.6406,0,0,0,0,0,0,0,-4.5555,-4.5589,-4.5932,-4.5864,-4.5872,-4.5871,-4.5897,-4.605,-4.6143,-4.6011,-4.6011,-4.6041,-4.6235,-4.6296,-4.6316,-4.6553,-4.6386,-4.6399,-4.6408,-4.6413,-4.6949,-4.6955,0,0,0,0,0,0,-4.5533,-4.5577,-4.5924,-4.5939,-4.5707,-4.5883,-4.5912,-4.5995,-4.6141,-4.6159,-4.6045,-4.604,-4.6274,-4.6299,-4.6324,-4.6553,-4.6401,-4.6415,-4.6423,-4.6944,-4.6951,-4.6957,0,0,0,0,0,0,-4.5523,-4.5564,-4.5914,-4.5758,-4.5803,-4.5897,-4.599,-4.6003,-4.6064,-4.6167,-4.6183,-4.609,-4.6271,-4.6304,-4.6478,-4.6561,-4.6421,-4.6434,-4.6937,-4.6946,-4.6954,-4.701,0,0,0,0,0,0,-4.5509,-4.556,-4.5632,-4.576,-4.5811,-4.6064,-4.5995,-4.6011,-4.6089,-4.6085,-4.6213,-4.623,-4.627,-4.6456,-4.6492,-4.6578,-4.6446,-4.693,-4.6941,-4.6951,-4.7001,-4.7019,-4.7035,0,0,0,0,0,-4.5492,-4.5637,-4.5636,-4.5678,-4.5903,-4.6069,-4.6098,-4.6142,-4.6096,-4.6169,-4.6235,-4.6226,-4.6547,-4.6474,-4.6514,-4.6606,-4.6925,-4.6938,-4.695,-4.6994,-4.7016,-4.7035,0,0,0,0,0,0,-4.5513,-4.5654,-4.5654,-4.5845,-4.5946,-4.6068,-4.6161,-4.6164,-4.6279,-4.627,-4.6319,-4.6348,-4.6521,-4.6581,-4.6498,-4.6795,-4.673,-4.6751,-4.6749,-4.6771,-4.6788,-4.6769,-4.6458,0,0,0,0,0,-4.5541,-4.5665,-4.5781,-4.5937,-4.5988,-4.6067,-4.614,-4.6166,-4.6271,-4.6313,-4.6392,-4.6494,-4.6618,-4.6698,-4.6817,-4.7011,-4.7039,-4.7094,-4.7111,-4.7124,-4.7141,-4.7249,-4.7275,-4.6998,-4.6998,-4.6998,0,0,-4.5597,-4.569,-4.5765,-4.5944,-4.6025,-4.6152,-4.6102,-4.6237,-4.6332,-4.6333,-4.6503,-4.6565,-4.6681,-4.6866,-4.6951,-4.6921,-4.7225,-4.714,-4.715,-4.716,-4.7265,-4.7291,-4.7314,-4.7007,-4.7005,-4.7004,0,0,-4.5766,-4.5848,-4.5989,-4.6072,-4.6196,-4.6248,-4.6282,-4.6406,-4.6447,-4.6619,-4.6623,-4.6736,-4.6948,-4.7032,-4.7102,-4.7306,-4.7302,-4.7344,-4.7431,-4.7536,-4.7557,-4.7577,-4.765,-4.7675,-4.7361,-4.7361,-4.7361,0,-4.5819,-4.6012,-4.606,-4.6198,-4.6277,-4.6287,-4.643,-4.6507,-4.6663,-4.6717,-4.6683,-4.6951,-4.703,-4.7235,-4.7285,-4.7342,-4.7382,-4.7328,-4.7551,-4.7571,-4.759,-4.766,-4.7687,-4.7365,-4.7365,-4.7364,-4.7364,0,-4.6073,-4.6206,-4.6305,-4.6458,-4.6549,-4.6688,-4.6756,-4.6842,-4.6862,-4.6917,-4.7092,-4.7188,-4.7328,-4.7379,-4.7398,-4.7588,-4.7566,-4.754,-4.7476,-4.762,-4.7686,-4.7714,-4.7371,-4.737,-4.7368,-4.7367,0,0,-4.6257,-4.6439,-4.6474,-4.6545,-4.6685,-4.6788,-4.6929,-4.7068,-4.7141,-4.7249,-4.7368,-4.7549,-4.7528,-4.7607,-4.7636,-4.7728,-4.7885,-4.7692,-4.7696,-4.7724,-4.81,-4.8118,-4.8148,-4.7884,-4.7889,-4.7893,-4.8091,0,-4.644,-4.6691,-4.6739,-4.6957,-4.7081,-4.7095,-4.7218,-4.7316,-4.7373,-4.7486,-4.7548,-4.7676,-4.7638,-4.7686,-4.7778,-4.7846,-4.7961,-4.7833,-4.7993,-4.7999,-4.7963,-4.8183,-4.8201,-4.8382,-4.8117,-4.8121,-4.8125,0,-4.6685,-4.6802,-4.7033,-4.7159,-4.7213,-4.7322,-4.7455,-4.7564,-4.7676,-4.7711,-4.7803,-4.7822,-4.7968,-4.7899,-4.8101,-4.8013,-4.8082,-4.8126,-4.8134,-4.8149,-4.8069,-4.8203,-4.8441,-4.8468,-4.8166,-4.8163,-4.816,0,-4.6796,-4.7012,-4.7179,-4.7239,-4.739,-4.7466,-4.7533,-4.7641,-4.7722,-4.7839,-4.7892,-4.8023,-4.8094,-4.8195,-4.8249,-4.8194,-4.8448,-4.8382,-4.848,-4.8479,-4.8531,-4.8527,-4.8783,-4.8578,-4.8577,-4.8577,-4.8576,0,-4.6993,-4.7134,-4.7231,-4.7333,-4.7491,-4.7547,-4.7702,-4.7767,-4.7864,-4.7979,-4.7998,-4.8105,-4.8171,-4.8288,-4.8332,-4.8493,-4.8525,-4.8557,-4.8566,-4.8554,-4.855,-4.8599,-4.8587,-4.8584,-4.8582,-4.8581,-4.858,0,-4.7143,-4.7214,-4.7396,-4.7526,-4.7562,-4.7673,-4.7783,-4.7883,-4.7941,-4.8086,-4.8124,-4.8214,-4.8353,-4.8418,-4.8589,-4.8619,-4.8802,-4.8803,-4.8764,-4.8767,-4.8861,-4.8851,-4.9156,-4.9199,-4.8966,-4.8969,-4.897,0,-4.7263,-4.7372,-4.7515,-4.7595,-4.7664,-4.7791,-4.7876,-4.7935,-4.8022,-4.8161,-4.8244,-4.8385,-4.85,-4.8721,-4.8801,-4.8932,-4.8937,-4.9035,-4.8956,-4.8942,-4.8938,-4.893,-4.8942,-4.9048,-4.905,-4.9052,-4.9054,0,-4.747,-4.7501,-4.7622,-4.7758,-4.7859,-4.7968,-4.8074,-4.8138,-4.8215,-4.8312,-4.8455,-4.8545,-4.8722,-4.8861,-4.8998,-4.9065,-4.9073,-4.9078,-4.9108,-4.9096,-4.9069,-4.9085,-4.8802,-4.907,-4.9069,-4.9067,-4.9067,-4.9066,-4.7608,-4.7707,-4.7824,-4.7959,-4.8047,-4.8147,-4.8248,-4.8321,-4.8442,-4.8592,-4.862,-4.8772,-4.8885,-4.9071,-4.9144,-4.9264,-4.9241,-4.9283,-4.9294,-4.9303,-4.9309,-4.9051,-4.9289,-4.9288,-4.9288,-4.9288,-4.9287,0,-4.7815,-4.7892,-4.8017,-4.8168,-4.8275,-4.8276,-4.8395,-4.8484,-4.8619,-4.8724,-4.8839,-4.9005,-4.9141,-4.9233,-4.9371,-4.9449,-4.9456,-4.9483,-4.9477,-4.9493,-4.9321,-4.9282,-4.9476,-4.9476,-4.9476,-4.9476,-4.9476,-4.9475,-4.7935,-4.8102,-4.8148,-4.8359,-4.8435,-4.8586,-4.8654,-4.8747,-4.8832,-4.9017,-4.9131,-4.9192,-4.9293,-4.9439,-4.9564,-4.9587,-4.9637,-4.9665,-4.9688,-4.9525,-4.9505,-4.9486,-4.9449,-4.9675,-4.9675,-4.985,-4.9851,-4.9852]},{"header":{"parameterUnit":"m.s-1","parameterCategory":1,"la1":30.2991,"la2":30.254,"lo1":-89.0895,"lo2":-89.0444,"dy":0.0017,"dx":0.0017,"nx":28,"ny":28,"refTime":"2024-08-31T09:00:00:Z","depth":0,"parameterNumber":3,"parameterNumberName":"V-component_of_WINDS"},"data":[0,0,0,0,0,0,0,0,0,0,0,0,0,0,0,0,0,0,0,0,0,0,0,0,0,0,0,0,0,0,0,0,0,0,0,0,0,0,0,0,0,0,0,0,0,0,0,0,0,0,0,0,0,0,0,0,0,0,2.0729,2.073,0,2.0836,2.0837,2.0838,2.0906,2.0907,2.0907,2.0907,2.1015,2.1017,2.102,0,0,0,0,0,0,0,0,0,0,0,0,0,2.0583,2.0585,2.0729,2.073,2.0731,2.0835,2.0837,2.0838,2.0906,2.0907,2.0907,2.0908,2.1014,2.1017,2.102,0,0,0,0,0,0,0,0,0,0,0,0,0,2.0663,2.0586,2.0728,2.0778,2.0783,2.0835,2.0837,2.0839,2.0906,2.0907,2.0907,2.0908,2.1013,2.1017,2.1021,2.1031,0,0,2.1032,2.1034,0,0,0,0,0,0,0,0,2.0659,2.0669,2.0769,2.0774,2.0781,2.0858,2.0825,2.0903,2.0906,2.0859,2.0907,2.0908,2.0962,2.097,2.0989,2.1036,2.1041,2.1032,2.1035,2.1036,2.1037,0,0,0,0,0,0,0,2.0653,2.0664,2.0771,2.077,2.0777,2.0794,2.0807,2.084,2.0906,2.0863,2.0869,2.088,2.0965,2.0985,2.0992,2.1043,2.1032,2.1035,2.1038,2.1039,2.1106,2.1106,0,0,0,0,0,0,2.064,2.0659,2.0768,2.0774,2.072,2.0796,2.081,2.0833,2.0906,2.0918,2.088,2.0883,2.0978,2.0987,2.0996,2.1014,2.1036,2.104,2.1042,2.1107,2.1106,2.1106,0,0,0,0,0,0,2.0636,2.0649,2.0763,2.0718,2.0734,2.0798,2.0823,2.0834,2.0854,2.0918,2.093,2.0888,2.0979,2.0991,2.1023,2.1019,2.1041,2.1045,2.1107,2.1107,2.1106,2.105,0,0,0,0,0,0,2.0632,2.0647,2.0652,2.0718,2.0736,2.0788,2.0823,2.0836,2.0861,2.0866,2.0929,2.094,2.0981,2.1017,2.1026,2.1025,2.1048,2.1108,2.1107,2.1106,2.1053,2.1048,2.1044,0,0,0,0,0,2.0626,2.0631,2.0652,2.0664,2.0743,2.0787,2.0798,2.0845,2.086,2.0865,2.0907,2.0938,2.1018,2.1019,2.1031,2.103,2.1108,2.1107,2.1106,2.1055,2.1049,2.1044,0,0,0,0,0,0,2.0562,2.0641,2.0664,2.069,2.0732,2.0799,2.0807,2.0837,2.0875,2.0878,2.0935,2.0949,2.0975,2.1006,2.1006,2.1045,2.1067,2.1068,2.1024,2.1019,2.1014,2.1006,2.1051,0,0,0,0,0,2.0551,2.058,2.0647,2.0664,2.0684,2.0742,2.0763,2.0796,2.0841,2.0858,2.0902,2.0944,2.0979,2.1001,2.1036,2.1058,2.1073,2.1063,2.1059,2.1055,2.1055,2.107,2.1067,2.1102,2.1102,2.1102,0,0,2.0528,2.0575,2.0589,2.0652,2.0688,2.0718,2.0756,2.0785,2.0807,2.0863,2.0896,2.0929,2.098,2.1007,2.1022,2.1034,2.1049,2.1053,2.105,2.1052,2.1069,2.1065,2.1062,2.1102,2.1102,2.1102,0,0,2.0501,2.0539,2.0558,2.0594,2.0648,2.0687,2.0691,2.0755,2.0779,2.0814,2.0857,2.0884,2.0943,2.0978,2.1003,2.0992,2.1022,2.1002,2.0978,2.0992,2.0989,2.0987,2.0983,2.0981,2.1002,2.1002,2.1002,0,2.0465,2.0511,2.0563,2.059,2.0617,2.067,2.069,2.0722,2.0785,2.0802,2.0815,2.0892,2.0929,2.0966,2.0964,2.0982,2.0989,2.0994,2.0985,2.0984,2.0982,2.0979,2.0978,2.0999,2.0999,2.1,2.1,0,2.0465,2.0496,2.0505,2.0566,2.0594,2.0616,2.0672,2.0694,2.0726,2.0763,2.0798,2.0846,2.0893,2.0904,2.0934,2.0946,2.0952,2.0974,2.0997,2.0975,2.0974,2.0973,2.0995,2.0996,2.0997,2.0998,0,0,2.0399,2.0489,2.0491,2.052,2.0585,2.0611,2.0637,2.0684,2.0702,2.0744,2.0767,2.0817,2.0839,2.0868,2.0903,2.0915,2.0904,2.0937,2.0939,2.0929,2.0921,2.0903,2.0901,2.0925,2.0925,2.0926,2.0917,0,2.0381,2.0431,2.0479,2.0511,2.0542,2.0594,2.0617,2.0659,2.0695,2.0726,2.0767,2.0801,2.0827,2.0845,2.086,2.0902,2.0903,2.0904,2.0948,2.0949,2.0933,2.09,2.0881,2.087,2.0916,2.0916,2.0916,0,2.0367,2.0408,2.0443,2.0507,2.0522,2.0541,2.0589,2.0618,2.0668,2.0694,2.0727,2.0765,2.0795,2.0816,2.0859,2.0858,2.088,2.0903,2.0904,2.0909,2.093,2.0904,2.0868,2.0866,2.0916,2.0916,2.0916,0,2.0315,2.0379,2.0409,2.0432,2.0507,2.052,2.0552,2.0603,2.0628,2.067,2.0687,2.0732,2.0756,2.079,2.0839,2.0849,2.0878,2.0902,2.09,2.0899,2.0902,2.0901,2.0868,2.0917,2.0917,2.0917,2.0917,0,2.029,2.031,2.0387,2.0405,2.0429,2.0485,2.0507,2.0544,2.0589,2.0616,2.0664,2.0687,2.0751,2.0783,2.0822,2.0852,2.0863,2.0885,2.0895,2.088,2.0877,2.0894,2.0896,2.0916,2.0916,2.0916,2.0917,0,2.0235,2.0288,2.0324,2.0393,2.0411,2.0425,2.0484,2.0504,2.0545,2.0578,2.0589,2.0651,2.0692,2.0744,2.0801,2.0827,2.0853,2.0868,2.0836,2.0842,2.0837,2.0837,2.0813,2.0813,2.0861,2.086,2.086,0,2.0215,2.0232,2.0303,2.0325,2.0355,2.0389,2.0416,2.0473,2.0499,2.0559,2.0571,2.0616,2.0654,2.0716,2.0766,2.081,2.0827,2.0816,2.0834,2.0819,2.0827,2.0825,2.0828,2.0811,2.081,2.081,2.0809,0,2.0175,2.0201,2.0237,2.0284,2.0315,2.0354,2.0396,2.0411,2.0476,2.0503,2.0546,2.0575,2.0634,2.0677,2.0728,2.0762,2.0796,2.0804,2.0805,2.079,2.0771,2.0782,2.0823,2.0803,2.0804,2.0804,2.0805,2.0805,2.0137,2.0155,2.0208,2.0248,2.0286,2.0324,2.0346,2.039,2.0426,2.0479,2.051,2.0551,2.0603,2.0675,2.0708,2.0741,2.0754,2.0757,2.0757,2.0757,2.0753,2.0766,2.075,2.0751,2.0751,2.0751,2.0751,0,2.0099,2.0136,2.0173,2.023,2.0262,2.0293,2.0341,2.0365,2.0401,2.0447,2.0484,2.0533,2.0576,2.0631,2.0678,2.0694,2.0712,2.0705,2.0704,2.0711,2.0738,2.0731,2.069,2.069,2.069,2.069,2.069,2.069,2.0082,2.0114,2.0146,2.0198,2.0236,2.0276,2.0301,2.0337,2.0374,2.0427,2.0463,2.0499,2.0549,2.0601,2.0642,2.0657,2.0672,2.066,2.068,2.0704,2.0709,2.0714,2.0709,2.0663,2.0663,2.0651,2.0651,2.0651]}]]